S-NET B (43187 NORAD) Tracking and Keplerian Element Data

This shows tracking and keplerian element data for the satellite.

Feedback or suggestion? Click here.




ElementValue
Catalog43187
NameS-NET B
Epoch Orbit4686
Epoch Day345.6794037
Epoch Year2018
RAAN251.7617
Inclination97.7168
Eccentricity0.0009704
Argument of Perigee279.1178
Mean Anonmoly80.8945
Mean Motion14.96545802
Decay Rate3.41E-06
L11 43187U 18014H 18345.67940370 .00000341 00000-0 35095-4 0 9998
L22 43187 97.7168 251.7617 0009704 279.1178 80.8945 14.96545802 46869

Live tracking and technical data element details for S-NET B (NORAD 43187). S-NET B can be tracked NOW for your location showing map with azimuth and elevation plus other details from your city location.

Track the satellite on the map from your city or location and see movement details for azimuth, elevation, latitude, longitude, range, height, and movement on the map or in text.







IsCatalogInMostPopularTable: catalog: 43187, numindb: 106
Update: records affected: 1



GetName: 43187 S-NET B

Hit Count: updated at: Thu, 13 Dec 2018 03:28:46 GMT